This is the latest recevied weather packets stored in our database for station/object GW4003. If no packets are shown the sender has not sent any weather packets the latest 1 day(s).
| Time | Temp. | Humidity | Pressure | Rain* | Wind** | Luminosity | Snow |
|---|---|---|---|---|---|---|---|
| 1778012496 | 4.44° C | 88% | 1014.3 hPa | 0.25 mm | 0.89 m/s, 339° | - | - |
| 1778012192 | 4.44° C | 88% | 1014.3 hPa | 0.25 mm | 0.45 m/s, 68° | - | - |
| 1778011889 | 4.44° C | 88% | 1014.2 hPa | 0.25 mm | 0.89 m/s, 295° | - | - |
| 1778011586 | 4.44° C | 88% | 1014.3 hPa | 0.25 mm | 2.24 m/s, 40° | - | - |
| 1778011283 | 4.44° C | 88% | 1014.3 hPa | 0.25 mm | 1.34 m/s, 17° | - | - |
| 1778010979 | 4.44° C | 88% | 1014.3 hPa | 0.25 mm | 1.34 m/s, 23° | - | - |
| 1778010676 | 4.44° C | 88% | 1014.3 hPa | 0.25 mm | 1.34 m/s, 24° | - | - |
| 1778010373 | 4.44° C | 88% | 1014.3 hPa | 0.25 mm | 0.89 m/s, 37° | - | - |
| 1778010070 | 4.44° C | 88% | 1014.3 hPa | 0.25 mm | 0.45 m/s, 64° | - | - |
| 1778009766 | 4.44° C | 88% | 1014.3 hPa | 0.25 mm | 1.34 m/s, 12° | - | - |
| 1778009463 | 4.44° C | 89% | 1014.2 hPa | 0.25 mm | 1.34 m/s, 44° | - | - |
| 1778009160 | 3.89° C | 88% | 1014.2 hPa | 0.25 mm | 0.89 m/s, 51° | - | - |
| 1778008858 | 3.89° C | 88% | 1014.2 hPa | 0.51 mm | 2.24 m/s, 76° | - | - |
| 1778008555 | 3.89° C | 88% | 1014.2 hPa | 0.51 mm | 0.89 m/s, 59° | - | - |
| 1778008252 | 3.89° C | 88% | 1014.2 hPa | 0.51 mm | 1.79 m/s, 42° | - | - |
| 1778007949 | 3.33° C | 88% | 1014.3 hPa | 0.51 mm | 1.34 m/s, 38° | - | - |
| 1778007646 | 3.33° C | 88% | 1014.4 hPa | 0.51 mm | 1.34 m/s, 46° | - | - |
| 1778007343 | 3.33° C | 88% | 1014.5 hPa | 0.25 mm | 0.45 m/s, 50° | - | - |
| 1778007039 | 3.89° C | 88% | 1014.5 hPa | 0.25 mm | 3.13 m/s, 39° | - | - |
| 1778006736 | 3.89° C | 89% | 1014.7 hPa | 0.25 mm | 0.89 m/s, 5° | - | - |
| 1778006433 | 3.89° C | 88% | 1014.8 hPa | 0.25 mm | 1.34 m/s, 63° | - | - |
| 1778006130 | 3.89° C | 88% | 1015 hPa | 0.25 mm | 0.45 m/s, 46° | - | - |
| 1778005827 | 3.89° C | 88% | 1015.2 hPa | 0.25 mm | 1.34 m/s, 5° | - | - |
| 1778005524 | 3.89° C | 88% | 1015.1 hPa | 0.25 mm | 0.89 m/s, 17° | - | - |
| 1778005221 | 4.44° C | 89% | 1015.1 hPa | 0 mm | 0.89 m/s, 67° | - | - |
* Rain latest hour (hover to see other rain measurements)
** Current wind speed in m/s (hover to see current wind gust speed)